SCP
5 5 5 5 4 3 3 2 2 2 2 2 2 2 2 2 2 2 3 3 3 3 3 3 2 2 3 3 4 5 7 8 7 6 7 7 7 7 6 6 6 5 4
5 5 5 5 4 3 3 2 2 2 2 2 2 2 2 2 2 2 3 3 3 3 3 3 2 2 3 3 4 5 6 6 7 6 6 6 7 7 7 6 6 5 5
5 5 5 5 4 4 3 3 2 2 2 3 3 2 2 2 2 2 2 3 3 2 2 2 2 2 3 3 3 3 4 5 6 6 6 5 6 7 7 7 6 6 5
6 6 5 5 4 4 4 3 2 3 3 3 3 2 2 2 2 2 2 2 2 2 2 2 2 2 2 3 2 2 2 4 5 5 5 5 5 5 6 6 6 6 5
5 5 5 5 4 4 4 3 3 3 3 3 2 2 2 2 2 2 2 2 2 2 2 2 2 2 2 2 2 2 2 3 4 4 5 5 4 4 4 5 6 6 5
5 4 4 4 4 4 3 3 3 3 3 3 2 2 1 2 2 2 2 2 2 2 2 2 2 2 2 2 2 2 2 2 3 3 4 4 4 4 3 4 5 5 5
5 4 4 4 4 4 4 3 3 3 3 2 2 2 1 1 2 2 2 2 2 2 2 2 2 2 3 2 2 2 2 2 3 3 3 3 4 4 4 3 3 4 4
5 5 4 4 4 4 4 4 4 3 3 2 2 2 1 1 2 2 2 2 1 1 1 1 2 2 2 2 2 2 2 2 2 2 2 3 3 4 4 3 3 3 3
5 5 4 4 4 4 3 3 3 3 3 3 2 2 2 2 2 2 2 1 1 1 1 1 2 2 2 2 2 2 1 1 2 2 2 2 3 3 3 3 2 2 2
5 4 4 4 3 3 2 2 2 2 3 2 2 2 2 2 2 2 2 1 1 1 1 1 1 1 2 2 2 2 1 1 1 1 1 2 2 2 2 2 2 2 2
5 4 4 3 3 3 2 2 2 2 2 2 2 2 2 2 2 2 2 2 2 1 2 1 1 1 2 2 2 2 1 1 1 1 1 1 2 2 2 3 3 3 2
6 5 4 3 3 2 2 2 2 2 2 2 2 2 2 2 2 2 2 2 2 2 1 1 1 1 1 1 1 1 1 1 1 1 1 1 1 2 2 2 3 3 3
6 5 3 3 3 3 2 2 2 2 2 2 2 2 2 2 2 2 2 2 2 2 1 1 1 1 1 1 1 1 1 1 1 1 1 1 1 1 1 2 2 2 2
4 4 4 4 4 3 2 1 1 1 2 2 2 2 2 2 2 2 2 1 1 1 1 1 1 1 1 1 1 1 1 1 1 1 1 1 1 1 1 1 1 1 2
3 3 4 4 4 3 2 1 1 1 1 2 2 2 2 2 2 2 2 1 1 1 1 1 1 1 1 1 0 0 0 0 1 1 0 0 0 0 1 1 1 1 1
3 3 3 4 3 2 1 1 1 1 1 1 2 2 2 2 2 2 1 1 1 1 1 0 1 1 1 0 0 0 0 0 0 0 0 0 0 0 0 0 0 0 0
2 2 2 2 2 1 1 1 1 1 1 1 1 1 1 1 1 1 1 1 1 1 1 0 0 0 0 0 0 0 0 0 0 0 0 0 0 0 0 0 0 0 0
2 2 1 1 1 1 1 1 1 1 1 1 1 1 1 1 1 1 1 1 1 1 1 0 0 0 0 0 0 0 0 0 0 0 0 0 0 0 0 0 0 0 0
2 1 1 1 1 1 1 1 1 1 1 1 1 1 1 1 1 1 1 1 1 1 0 0 0 0 0 0 0 0 0 0 0 0 0 0 0 0 0 0 0 0 0
2 1 1 1 1 1 0 0 0 0 0 0 1 1 1 1 1 1 1 1 1 1 1 0 0 0 0 0 0 0 0 0 0 0 0 0 0 0 0 0 0 0 0
2 1 1 1 1 0 0 0 0 0 0 1 1 1 1 1 1 1 0 1 1 1 1 1 1 1 0 0 0 0 0 0 0 0 0 0 0 0 0 0 0 0 0
2 1 1 1 1 0 0 0 0 0 0 1 1 1 1 1 1 0 0 0 0 0 0 1 1 1 0 0 0 0 0 0 0 0 0 0 0 0 0 0 0 0 0
1 1 1 1 1 0 0 0 0 0 1 1 2 2 1 1 0 0 0 0 0 0 0 0 1 1 0 0 0 0 0 0 0 0 0 0 0 0 0 0 0 0 0
2 1 1 1 1 1 0 0 0 0 1 1 2 2 1 1 0 0 0 0 0 0 0 0 0 0 0 0 0 0 0 0 0 0 0 0 0 0 0 0 0 0 0
2 1 1 1 1 1 1 0 0 0 1 1 1 1 1 0 0 0 0 0 0 0 0 0 0 0 0 0 0 0 0 0 0 0 0 0 0 0 0 0 0 0 0
1 1 1 1 1 1 1 0 0 0 1 1 1 1 0 0 0 0 0 0 0 0 0 0 0 0 0 0 0 0 0 0 0 0 0 0 0 0 0 0 0 0 0
Wind_Speed
2 1 1 1 2 1 2 2 2 3 4 4 5 5 4 5 5 3 2 7 8 8 8 10 10 10 11 12 12 13 14 15 15 15 15 15 15 14 14 14 13 13 13
1 1 1 1 2 1 1 2 3 3 3 3 4 5 6 6 4 2 2 3 6 7 9 9 9 9 11 12 12 13 13 13 14 15 15 15 16 15 15 15 14 14 14
1 1 2 2 2 2 2 2 3 2 3 3 4 5 5 5 4 3 3 2 3 6 9 9 9 8 9 11 11 12 13 13 14 15 15 15 16 16 16 16 15 15 14
1 1 2 2 1 1 1 2 2 2 3 3 3 4 4 4 5 5 4 3 2 3 5 8 8 9 9 11 11 12 13 14 14 15 15 16 16 16 16 16 16 16 15
1 1 1 1 2 1 1 2 1 2 3 3 4 4 4 4 4 5 4 4 3 3 3 6 9 10 11 11 11 11 12 13 13 13 15 16 16 16 16 16 16 16 16
1 1 1 1 2 1 1 2 3 3 3 3 5 5 4 4 3 3 4 4 3 4 4 4 4 7 10 10 11 11 11 11 12 12 13 14 14 15 15 15 16 16 16
1 1 1 1 2 1 1 2 3 4 3 2 3 4 4 4 3 3 3 2 3 3 3 4 3 3 4 10 10 11 11 11 11 11 12 12 12 12 13 14 15 16 16
1 1 0 1 1 1 1 2 2 2 3 2 1 2 3 2 2 3 2 3 2 2 3 4 3 4 4 3 6 10 10 10 11 11 11 11 11 11 12 12 14 15 15
1 1 1 1 1 2 1 2 2 2 3 3 1 1 2 2 2 2 2 2 2 2 2 2 3 3 5 4 4 7 9 8 9 10 10 10 11 11 12 12 13 14 15
0 0 0 1 1 2 2 3 2 2 3 3 2 2 2 2 2 2 2 2 2 3 3 3 3 3 4 3 3 5 7 8 9 10 10 10 11 11 11 11 12 13 14
1 0 0 0 1 2 2 3 3 3 3 3 2 2 3 3 3 3 4 3 2 2 2 3 3 3 3 3 3 4 6 6 7 9 9 9 10 11 11 12 13 13 13
1 1 1 1 1 2 2 2 3 4 3 3 3 3 3 3 2 3 3 3 3 3 3 2 2 3 3 3 4 5 6 6 7 8 8 9 9 10 10 12 13 14 14
1 1 1 1 2 2 2 2 2 3 4 3 3 3 3 3 3 3 3 3 3 3 3 2 2 2 2 1 1 5 5 6 6 6 7 8 9 10 11 11 12 13 13
2 1 1 1 2 2 3 2 2 3 3 3 5 4 3 3 3 3 2 3 3 3 3 3 2 1 1 1 2 4 3 5 6 6 6 7 8 9 10 10 10 10 10
2 1 2 2 2 2 3 3 3 4 3 3 4 4 3 3 3 3 3 3 3 4 4 3 2 2 1 1 2 2 3 5 7 7 8 8 9 9 9 9 9 9 9
3 2 2 2 2 3 3 3 3 3 4 4 3 3 3 3 3 3 3 3 3 3 4 3 3 2 2 2 3 3 3 6 8 8 9 10 10 10 10 10 10 10 10
2 2 2 3 3 3 3 3 3 3 4 4 4 4 4 4 3 3 3 3 3 2 3 4 3 3 3 3 3 3 3 4 4 9 10 10 11 11 11 11 11 11 11
2 2 2 3 3 3 3 3 4 4 4 4 4 4 4 4 3 3 3 3 3 3 2 4 4 3 4 3 3 4 4 4 3 7 10 11 11 11 11 11 11 11 10
2 2 2 3 3 3 3 4 4 4 4 4 4 4 4 4 3 3 3 3 3 3 2 3 4 3 3 3 3 4 4 3 4 5 7 9 10 10 11 11 11 11 10
2 2 2 2 3 3 4 4 5 4 4 4 4 4 3 3 3 3 3 3 3 3 3 3 3 3 3 3 2 2 3 2 3 3 3 4 7 10 11 11 11 11 11
2 2 2 2 2 3 3 4 5 5 4 4 4 3 3 3 3 3 3 3 4 3 3 3 3 2 3 2 2 2 2 2 3 3 2 3 3 4 6 9 10 11 11
2 2 2 3 3 4 5 6 5 4 4 4 4 3 3 3 3 3 5 5 5 4 3 3 3 3 4 3 3 3 3 2 3 2 2 3 3 3 4 5 9 12 13
2 2 2 2 2 3 4 5 6 5 4 4 4 3 4 4 3 3 4 5 5 7 7 4 5 5 4 4 4 4 3 3 4 3 3 4 3 4 4 5 8 11 13
2 2 2 2 2 3 4 4 6 5 4 4 4 3 3 3 4 5 5 4 4 4 4 5 5 5 5 4 4 5 4 4 5 4 4 4 4 4 4 3 7 11 12
2 2 2 2 2 2 3 4 4 4 4 4 4 3 3 2 4 5 4 5 5 5 5 6 7 7 8 9 6 4 4 3 4 4 3 3 3 3 3 3 5 9 11
2 2 2 2 2 2 2 3 3 3 4 4 3 2 2 2 4 4 3 4 5 6 6 7 6 7 7 8 9 6 5 4 4 4 3 3 3 2 2 3 3 4 5
Wind_Direction
232 244 240 236 255 249 228 239 254 258 260 269 272 276 277 268 260 269 184 193 197 203 216 228 230 231 230 228 229 229 225 222 221 220 218 218 219 217 216 215 213 212 211
223 231 249 239 248 257 270 253 254 256 256 259 268 273 275 278 271 266 240 206 204 212 221 225 229 235 237 237 234 232 228 226 225 224 221 218 219 219 218 217 216 213 212
237 239 249 240 240 237 240 252 269 273 261 258 259 266 267 270 272 266 257 235 212 221 227 224 223 230 237 241 239 236 234 232 227 225 225 223 221 221 220 218 216 215 214
258 244 249 258 262 259 248 249 245 264 269 267 268 269 264 259 261 258 251 242 230 234 228 227 223 226 233 239 241 242 240 237 233 228 226 225 224 223 222 219 217 215 214
288 273 261 280 278 266 265 278 269 260 266 265 264 256 254 253 247 255 253 245 228 221 225 221 225 229 233 238 239 241 244 243 238 233 229 227 224 223 224 221 218 216 215
301 286 271 282 289 283 268 275 276 258 255 257 274 276 264 254 238 236 242 244 238 236 235 228 219 230 233 239 240 239 242 246 243 237 233 230 225 223 224 221 220 218 216
293 274 292 289 281 273 278 293 287 285 272 261 281 288 274 252 235 233 227 232 238 240 236 229 224 228 223 232 234 235 241 245 246 242 237 235 231 224 223 222 221 219 219
290 270 265 258 280 278 276 280 284 290 295 297 278 294 291 268 278 261 223 229 237 251 253 249 228 225 229 218 222 231 234 241 245 244 240 236 234 231 226 223 224 222 221
343 328 314 307 288 277 272 274 277 278 289 295 263 244 278 287 308 258 251 246 229 244 260 256 248 236 234 225 214 223 227 230 239 244 246 242 236 234 229 225 224 225 226
241 275 310 312 303 309 303 296 315 288 282 291 289 250 251 263 272 293 279 258 257 258 260 273 280 260 243 221 211 209 215 221 231 238 245 246 239 234 233 231 229 229 229
237 218 232 313 283 288 297 303 310 294 284 279 287 294 282 268 247 255 279 283 271 260 256 261 267 270 255 229 213 203 205 217 224 232 238 241 239 236 234 233 232 232 232
241 241 272 275 282 291 296 297 293 285 281 282 282 278 277 280 274 267 272 279 281 279 267 257 255 259 257 239 235 203 200 214 221 227 232 237 237 238 234 236 235 234 234
283 289 314 301 293 281 274 273 282 288 281 278 273 274 280 281 281 278 279 284 287 286 277 256 244 245 263 243 206 197 207 214 215 219 226 233 239 241 239 239 238 236 234
311 313 305 300 298 304 307 311 289 280 281 280 280 278 273 270 271 267 265 274 287 287 287 281 265 242 249 225 191 197 219 219 215 219 225 231 236 240 241 240 238 236 234
306 331 315 305 302 300 300 301 296 300 296 285 282 281 278 275 270 265 261 255 262 285 291 292 291 283 255 229 178 207 232 230 224 223 226 228 228 229 233 234 233 231 231
320 313 308 306 302 298 292 293 294 293 292 291 289 295 291 284 288 284 271 265 260 265 281 296 293 297 291 282 223 232 239 243 234 227 225 224 223 222 224 228 228 225 226
315 312 316 309 303 303 304 297 289 288 294 299 302 303 296 292 298 300 301 286 272 268 274 291 297 297 297 288 271 253 248 240 232 226 223 222 221 220 223 225 225 224 224
306 310 308 305 302 310 314 308 302 304 305 302 302 302 300 300 297 293 294 293 286 273 260 282 292 289 286 274 264 259 262 251 239 230 221 221 221 219 220 221 220 221 221
309 308 306 306 312 321 320 316 314 311 309 306 306 304 301 304 303 297 294 294 291 294 278 273 284 284 283 280 279 275 273 265 259 244 221 216 219 218 219 220 218 219 219
310 308 310 315 318 324 328 330 325 322 318 313 309 306 310 315 311 308 300 297 294 295 286 274 274 280 278 275 277 278 288 268 268 268 248 220 215 217 220 220 218 217 218
318 322 322 323 321 322 342 338 323 325 330 318 315 320 324 323 310 300 302 310 316 306 294 293 290 294 296 291 289 282 283 286 277 257 240 238 221 216 217 223 224 220 216
336 345 339 336 341 351 2 355 344 326 321 318 319 319 305 299 302 288 276 268 268 284 299 300 295 295 291 291 290 288 284 285 282 252 243 256 238 231 221 213 213 213 211
347 343 333 346 351 350 343 341 338 317 311 312 314 316 318 329 334 324 299 282 270 260 250 255 275 279 280 287 293 293 289 283 277 264 261 262 248 245 235 231 215 208 207
329 328 328 327 324 335 333 327 322 306 303 304 301 300 304 324 342 333 317 314 307 292 264 250 259 268 270 270 270 270 267 270 269 260 237 255 251 247 245 226 211 208 207
335 327 314 307 314 321 323 319 318 304 298 304 308 317 314 335 331 323 313 312 310 302 291 282 268 264 264 264 264 273 272 270 278 275 252 243 246 250 246 233 218 211 207
306 304 313 308 311 323 321 310 311 302 307 308 303 301 316 321 321 317 303 306 304 304 312 310 294 274 262 255 245 234 249 261 265 274 266 258 254 251 262 240 209 193 208